Manchester, NH

12:09 PM EDT on October 23, 2019 (GMT -0400)
Manchester

Weather History for KMHT - September, 2019

Change the Weather History Date:

Tuesday, September 17, 2019

  Actual Average Record
Temperature  
Mean Temperature 60 °F 62 °F  
Max Temperature 71 °F 72 °F 88 °F (2015)
Min Temperature 48 °F 52 °F 39 °F (1935)
Degree Days  
Heating Degree Days 5 4  
Month to date heating degree days 37 39  
Since 1 July heating degree days 39 57  
Cooling Degree Days 0 1  
Month to date cooling degree days 29 43  
Year to date cooling degree days 804 629  
Growing Degree Days 10 (Base 50)    
Moisture  
Dew Point 48 °F    
Average Humidity 64    
Maximum Humidity 86    
Minimum Humidity 41    
Precipitation  
Precipitation 0.00 in 0.13 in 6.93 in (1932)
Month to date precipitation 0.47 2.06  
Year to date precipitation 23.43 31.32  
Snow  
Snow 0.00 in - - ()
Month to date snowfall 0.0  
Since 1 July snowfall 0.0  
Snow Depth 0.00 in    
Sea Level Pressure  
Sea Level Pressure 30.16 in    
Wind  
Wind Speed 4 mph (ENE)    
Max Wind Speed 16 mph    
Max Gust Speed 19 mph    
Visibility 10 miles    
Events      
T = Trace of Precipitation, MM = Missing Value Source: NWS Daily Summary

Daily Weather History Graph

Daily Weather History Graph

Search for Another Location

Airport or City:

Astronomy

Sep. 17, 2019 Rise Set
Actual Time 6:27 AM EDT 6:52 PM EDT
Civil Twilight 5:58 AM EDT 7:20 PM EDT
Nautical Twilight 5:25 AM EDT 7:54 PM EDT
Astronomical Twilight 4:50 AM EDT 8:28 PM EDT
Moon 8:49 PM EDT (9/17) 9:32 AM EDT (9/17)
Length of Visible Light 13h 21m
Length of Day
12h 25m
Waning Gibbous, 89% of the Moon is Illuminated
Sep 17
Waning Gibbous
Sep 21
Last Quarter
Sep 28
New
Oct 5
First Quarter
Oct 13
Full

Hourly Weather History & Observations

Time (EDT) Temp. Dew Point Humidity Pressure Visibility Wind Dir Wind Speed Gust Speed Precip Events Conditions
12:53 AM 53.1 °F 46.9 °F 80% 30.11 in 10.0 mi Calm Calm - N/A   Clear
1:53 AM 53.1 °F 46.9 °F 80% 30.11 in 10.0 mi Calm Calm - N/A   Partly Cloudy
2:53 AM 50.0 °F 46.0 °F 86% 30.11 in 10.0 mi Calm Calm - N/A   Clear
3:53 AM 50.0 °F 45.0 °F 83% 30.10 in 10.0 mi Calm Calm - N/A   Clear
4:53 AM 48.0 °F 45.0 °F 89% 30.10 in 10.0 mi SSE 3.5 mph - N/A   Clear
5:53 AM 48.9 °F 44.1 °F 83% 30.11 in 10.0 mi Calm Calm - N/A   Clear
6:53 AM 50.0 °F 45.0 °F 83% 30.13 in 10.0 mi Calm Calm - N/A   Partly Cloudy
7:53 AM 55.9 °F 46.0 °F 69% 30.14 in 10.0 mi NNW 9.2 mph - N/A   Partly Cloudy
8:53 AM 60.1 °F 46.0 °F 60% 30.16 in 10.0 mi NW 9.2 mph - N/A   Partly Cloudy
9:53 AM 64.0 °F 46.0 °F 52% 30.17 in 10.0 mi NNW 12.7 mph - N/A   Partly Cloudy
10:53 AM 66.9 °F 45.0 °F 45% 30.17 in 10.0 mi North 13.8 mph - N/A   Partly Cloudy
11:53 AM 66.9 °F 46.0 °F 47% 30.17 in 10.0 mi North 9.2 mph - N/A   Mostly Cloudy
12:53 PM 68.0 °F 46.0 °F 45% 30.16 in 10.0 mi Variable 5.8 mph - N/A   Mostly Cloudy
1:53 PM 71.1 °F 46.0 °F 41% 30.16 in 10.0 mi NE 8.1 mph - N/A   Mostly Cloudy
2:53 PM 68.0 °F 46.9 °F 47% 30.15 in 10.0 mi ENE 9.2 mph - N/A   Mostly Cloudy
3:53 PM 69.1 °F 46.9 °F 45% 30.15 in 10.0 mi ENE 6.9 mph - N/A   Mostly Cloudy
4:53 PM 68.0 °F 50.0 °F 52% 30.15 in 10.0 mi SSE 5.8 mph - N/A   Mostly Cloudy
5:53 PM 64.9 °F 52.0 °F 63% 30.16 in 10.0 mi ESE 8.1 mph - N/A   Mostly Cloudy
6:53 PM 64.0 °F 52.0 °F 65% 30.18 in 10.0 mi SE 4.6 mph - N/A   Mostly Cloudy
7:53 PM 62.1 °F 52.0 °F 70% 30.19 in 10.0 mi SE 3.5 mph - N/A   Mostly Cloudy
8:53 PM 61.0 °F 52.0 °F 72% 30.20 in 10.0 mi Calm Calm - N/A   Mostly Cloudy
9:53 PM 61.0 °F 53.1 °F 75% 30.21 in 10.0 mi NE 3.5 mph - N/A   Mostly Cloudy
10:53 PM 61.0 °F 52.0 °F 72% 30.22 in 10.0 mi Calm Calm - N/A   Mostly Cloudy
11:53 PM 60.1 °F 52.0 °F 75% 30.23 in 10.0 mi ENE 6.9 mph - N/A   Mostly Cloudy